SCP
0 0 0 0 0 0 0 0 0 0 0 0 0 0 0 0 0 0 0 1 1 1 1 1 1 2 2 2 1 1 1 0 0 1 0 0 0 0 0 0 0 0 0
1 0 0 0 0 0 0 0 0 0 0 0 0 0 0 0 0 0 0 0 1 1 1 1 1 2 2 3 2 1 1 1 1 1 1 0 1 0 0 0 0 0 0
1 0 -0 0 0 0 0 0 0 0 0 0 0 0 0 0 0 1 1 1 1 1 1 1 2 2 2 2 4 2 1 1 1 1 1 1 1 0 0 0 0 0 0
3 2 1 1 0 1 0 0 0 0 0 0 1 0 0 1 0 1 1 1 1 1 1 2 3 1 1 1 3 2 2 2 1 1 1 1 1 1 0 1 0 0 0
2 1 1 1 1 1 1 0 0 1 0 0 0 1 1 1 1 0 1 2 3 2 2 2 0 0 1 0 0 1 2 2 1 1 0 1 1 1 1 1 1 0 0
1 1 1 1 1 1 1 2 2 2 2 1 1 1 1 1 1 1 2 2 2 1 1 2 3 1 0 0 0 0 0 1 2 0 0 0 1 1 1 1 1 0 0
1 1 1 2 2 1 2 2 2 2 2 1 1 2 2 2 2 2 1 0 0 0 0 1 2 1 0 0 0 0 0 0 1 1 1 0 0 0 1 1 0 0 0
1 1 1 2 2 2 2 2 2 1 1 2 3 2 2 1 1 1 1 0 0 0 0 0 0 0 0 0 0 0 0 0 1 4 1 1 0 0 0 0 0 0 0
2 2 2 2 2 2 1 2 2 2 2 1 1 2 1 1 1 0 0 0 0 0 0 0 0 0 0 0 0 0 0 0 0 0 1 0 0 0 0 0 0 0 0
2 2 2 2 2 2 2 2 2 2 1 1 2 2 1 1 1 0 0 0 0 0 0 0 0 0 0 0 0 0 0 0 0 0 -0 0 0 0 0 0 0 0 0
2 1 1 1 1 1 1 1 1 1 1 1 2 2 2 2 1 1 0 0 0 0 1 0 0 0 0 0 0 0 0 0 0 0 0 0 0 0 0 0 0 0 0
1 1 0 1 0 0 0 0 0 0 1 1 1 1 1 1 2 2 2 2 1 0 1 0 1 0 0 0 0 0 0 0 0 0 0 0 0 0 0 0 0 1 0
0 0 0 0 0 0 0 0 0 0 0 0 0 0 0 0 1 0 0 0 0 0 0 0 0 1 1 1 2 0 0 0 0 0 0 0 0 0 0 0 0 0 0
0 0 0 0 0 0 0 0 0 0 0 0 0 0 0 0 0 0 0 0 0 0 0 0 0 1 1 2 1 0 0 0 0 0 0 0 0 0 0 0 0 0 0
0 0 0 0 0 0 0 0 0 0 0 0 0 0 0 0 0 0 0 0 0 0 0 0 0 0 0 0 0 0 0 0 0 0 0 0 0 0 0 0 0 0 0
0 0 0 0 0 0 0 0 0 0 0 0 0 0 0 0 0 0 0 0 0 0 0 0 0 0 0 0 0 0 0 0 0 0 0 0 0 0 0 0 0 0 0
0 0 0 0 0 0 0 0 0 0 0 0 0 0 0 0 0 0 0 0 0 0 0 0 0 0 0 0 0 0 0 0 0 0 0 0 0 0 0 0 0 0 0
0 0 0 0 0 0 0 0 0 0 0 0 0 0 0 0 0 0 0 0 0 0 0 0 0 0 0 0 0 0 0 0 0 0 0 0 0 0 0 0 0 0 0
0 0 0 0 0 0 0 0 0 0 0 0 0 0 0 0 0 0 0 0 0 0 0 0 0 0 0 0 0 0 0 0 0 0 0 0 0 0 0 0 0 0 0
0 0 0 0 0 0 0 0 0 0 0 0 0 0 0 0 0 0 0 0 0 0 0 0 0 0 0 0 0 0 0 0 0 0 0 0 0 0 0 0 0 0 0
0 0 0 0 0 0 0 0 0 0 0 0 0 0 0 0 -0 0 0 0 0 0 0 0 0 0 0 0 0 0 0 0 0 0 0 0 0 0 0 0 0 0 0
0 0 0 0 0 0 0 0 0 0 0 0 0 0 -0 -0 -0 -0 -0 0 0 0 0 0 0 0 0 0 0 0 0 0 0 0 0 0 0 0 0 0 0 0 0
0 0 0 0 0 0 0 0 0 0 0 0 0 0 0 0 0 0 -0 -0 0 0 0 0 0 0 0 0 0 0 0 0 0 0 0 0 0 0 0 0 0 0 0
0 0 0 0 0 0 0 0 0 0 0 0 -0 -0 0 0 0 -0 -0 -0 -0 -0 0 0 0 0 0 0 0 0 0 0 0 0 0 0 0 0 0 0 0 0 0
0 0 0 0 0 0 0 0 0 -0 0 -0 0 0 0 0 0 -0 -0 0 -0 -0 -0 0 0 0 -0 0 0 0 0 0 0 0 0 0 0 0 0 0 0 0 -0
0 0 0 0 0 0 0 0 0 -0 0 0 0 0 0 0 -0 -0 -0 -0 -0 0 -0 0 0 0 0 0 0 0 0 0 0 0 0 0 0 0 0 0 0 0 0
Wind_Speed_500mb
22 20 21 22 22 21 25 25 29 34 36 38 38 38 41 43 43 41 41 45 55 55 52 56 57 54 53 50 49 52 51 49 49 46 48 49 48 47 46 45 44 44 41
26 24 23 24 23 24 25 25 27 32 37 38 41 42 43 44 44 45 45 42 48 58 53 55 57 60 59 54 53 55 53 51 49 46 45 46 45 45 45 48 49 52 51
28 25 25 24 24 25 28 28 27 31 36 39 41 42 43 44 43 46 42 44 42 49 53 62 55 55 58 55 50 54 54 48 48 46 44 43 44 44 45 45 44 48 48
33 31 26 25 25 24 27 27 25 29 33 38 42 42 42 42 44 47 47 51 51 51 55 49 55 53 57 58 53 48 49 48 49 48 45 39 39 37 35 36 38 39 40
27 31 25 26 33 27 28 25 26 29 35 41 44 44 46 46 46 52 53 52 56 53 49 58 66 67 57 57 53 49 47 44 44 46 43 40 36 34 34 32 33 35 37
23 25 25 30 29 26 28 32 35 37 40 42 48 49 53 50 59 61 70 54 46 53 67 64 74 82 76 69 69 58 49 29 37 46 45 43 40 42 40 36 36 38 40
20 27 24 29 31 32 34 38 40 43 46 45 51 54 53 62 63 66 68 38 52 54 59 63 76 74 68 70 69 86 72 56 27 48 44 45 49 50 45 42 42 42 43
24 26 21 22 27 32 34 37 38 39 44 46 52 57 52 49 54 55 56 49 51 48 51 61 68 75 72 72 59 62 77 76 65 52 32 52 65 59 55 52 49 49 52
22 26 28 29 29 30 23 33 31 35 43 44 42 46 32 19 33 33 37 51 49 46 41 51 55 66 70 54 51 57 62 60 67 55 42 78 71 68 62 60 60 61 59
13 10 18 16 20 21 25 28 34 34 30 33 32 34 34 38 27 38 37 52 49 50 55 52 48 39 48 52 31 36 35 40 38 54 65 76 71 75 71 74 73 73 71
9 9 13 21 24 13 26 32 37 32 39 38 37 39 43 51 44 44 45 42 47 44 45 40 52 39 30 28 31 31 40 53 54 58 79 79 82 91 89 87 87 86 82
3 9 11 10 15 14 21 24 30 28 31 28 28 34 39 47 46 47 50 52 54 61 58 57 49 48 53 46 49 57 54 51 67 76 81 89 98 92 86 84 94 92 87
5 5 10 14 20 25 27 29 30 34 29 36 33 33 28 33 40 46 46 51 51 55 58 56 57 63 57 60 58 60 51 66 74 80 84 85 89 95 99 98 95 94 92
2 10 16 19 21 24 28 30 29 32 37 38 39 36 38 36 30 37 41 47 56 55 48 51 43 43 47 52 55 63 69 74 76 72 73 77 80 83 88 89 87 90 93
7 11 14 18 23 28 32 34 24 36 38 33 36 31 32 32 31 34 37 42 47 62 58 52 56 57 60 60 56 47 57 57 71 82 93 100 98 95 96 96 98 102 96
6 12 17 24 28 30 31 35 28 27 37 35 32 32 37 33 36 35 37 39 42 53 68 52 55 56 56 59 65 72 80 85 83 76 74 76 71 74 75 77 84 83 86
13 17 22 24 22 25 28 34 32 30 30 33 33 33 34 36 36 36 39 39 39 44 59 60 56 60 64 73 72 73 73 74 77 73 73 75 79 83 81 66 71 85 82
15 19 21 22 23 25 27 29 30 30 31 33 34 35 34 33 36 36 36 40 41 46 54 63 66 62 63 66 69 72 78 73 73 69 71 77 77 60 57 61 62 77 80
15 18 20 21 23 25 26 24 25 29 30 33 34 34 36 33 34 37 42 42 42 45 48 55 70 71 71 72 73 80 76 76 77 72 72 68 69 65 62 71 66 64 65
15 16 19 19 21 23 20 23 32 30 30 30 35 35 33 33 38 44 46 51 55 54 61 67 73 80 74 82 79 79 77 70 71 78 82 75 67 63 67 58 60 56 51
14 16 18 19 19 16 28 33 33 34 34 33 33 25 25 27 34 40 49 55 58 66 69 71 74 76 78 79 79 85 87 90 86 75 73 65 51 53 51 51 56 51 47
14 14 14 18 25 25 29 31 30 32 24 25 28 29 27 24 35 38 45 49 46 49 56 55 61 67 76 73 73 85 89 82 70 64 42 45 46 54 51 62 56 59 52
14 14 18 18 22 27 25 26 29 28 23 25 26 25 25 29 43 51 52 53 43 40 35 41 51 64 80 82 71 75 78 72 68 66 57 63 64 74 75 68 60 57 63
15 18 24 21 20 25 26 28 31 28 23 20 15 22 27 39 47 51 55 50 48 39 37 36 39 53 61 67 56 59 65 55 54 49 41 47 43 42 45 38 44 49 60
12 17 23 22 17 26 27 33 33 31 24 18 25 27 32 38 41 50 59 63 48 46 32 39 42 54 55 64 58 58 59 52 50 51 40 29 45 48 45 26 41 42 46
12 15 16 21 20 22 25 34 35 33 25 21 23 25 33 24 36 48 57 66 61 59 56 51 45 51 55 66 64 53 62 47 37 28 30 30 37 36 36 41 63 61 27
Wind_Direction_500mb
220 224 227 230 242 250 248 258 256 259 263 262 259 260 264 267 267 263 264 268 273 282 274 266 267 265 262 261 266 266 265 265 270 272 272 273 272 272 270 270 271 274 274
221 227 235 241 239 249 253 255 264 264 267 267 264 266 265 263 268 272 272 274 281 284 288 274 271 270 267 262 262 261 264 266 270 271 270 273 272 273 270 268 270 273 276
220 230 240 252 257 258 258 262 266 271 272 271 270 270 267 271 272 274 276 278 281 284 286 290 282 271 264 260 256 263 266 267 268 268 268 270 271 271 271 271 271 272 273
226 241 235 251 262 261 266 268 268 274 274 276 274 271 270 271 270 275 276 276 275 281 281 283 269 267 271 267 261 252 248 260 267 265 268 263 267 270 269 272 275 274 276
221 230 238 247 256 263 273 278 282 281 280 275 275 274 274 273 271 278 278 273 275 280 277 273 275 274 269 258 250 235 242 261 265 267 264 264 267 266 270 273 275 271 273
227 237 242 251 267 273 274 262 266 265 267 274 277 277 274 273 278 279 275 263 266 277 279 275 274 271 264 260 254 249 241 251 265 265 265 267 268 268 270 272 272 274 274
230 240 243 250 259 284 284 281 280 281 279 274 280 280 274 275 281 281 291 296 289 282 280 285 273 267 272 274 273 268 251 240 248 275 268 280 278 271 273 275 277 277 281
218 234 255 262 280 286 289 283 287 289 292 291 282 284 286 282 278 276 281 283 302 303 308 301 283 269 272 271 274 265 254 237 232 257 242 269 270 269 272 275 278 282 281
225 243 255 270 275 283 299 281 288 284 291 294 292 277 285 280 303 296 282 295 304 314 320 323 306 281 265 263 257 257 252 244 229 225 249 270 266 266 268 272 277 279 278
226 245 267 284 288 288 282 280 286 287 290 296 293 282 278 274 287 297 296 301 316 307 310 316 317 319 286 272 309 278 249 224 231 248 256 265 266 266 269 273 276 278 278
216 248 271 278 281 291 284 285 289 299 290 283 282 284 283 285 283 275 287 287 292 293 305 297 300 298 276 278 273 250 279 246 248 258 259 266 272 272 271 273 275 274 275
261 253 279 294 306 307 308 314 310 314 303 301 300 298 294 284 283 280 282 283 289 293 287 283 295 281 269 282 282 271 271 267 254 255 260 261 264 265 265 267 268 270 268
100 307 305 305 307 314 314 315 316 312 310 303 304 300 297 297 300 296 293 289 291 291 289 287 280 279 285 288 272 266 266 258 263 264 267 267 267 268 268 270 268 266 265
224 303 309 316 317 318 318 318 318 305 298 301 298 296 297 298 297 297 299 300 300 299 298 300 302 296 291 287 284 281 277 278 276 273 269 269 271 272 274 272 267 265 265
13 328 324 329 330 326 324 324 328 320 309 311 312 316 298 300 297 292 290 292 293 299 299 302 303 297 290 292 280 289 280 276 278 281 280 283 281 279 277 274 272 267 261
337 336 335 333 331 329 325 320 316 310 312 317 313 304 305 304 301 302 298 294 293 295 297 303 301 299 293 290 285 283 281 284 287 288 291 295 294 288 283 278 271 267 263
347 337 333 333 332 330 325 324 324 328 313 315 313 310 306 308 309 306 302 303 303 302 299 303 302 304 299 297 299 296 294 289 292 292 289 285 283 282 284 289 284 272 265
342 340 334 335 336 333 330 331 325 322 321 314 313 311 310 311 308 307 308 302 301 301 302 304 305 303 299 293 294 290 286 282 283 281 282 284 287 285 291 283 293 288 269
348 343 342 344 341 337 333 323 321 317 312 310 310 305 306 307 309 307 310 310 307 305 303 297 301 306 301 294 299 297 292 290 283 278 284 289 289 289 288 292 288 291 276
354 352 349 344 338 336 316 306 323 318 312 308 307 312 316 327 319 314 309 310 314 304 300 301 300 302 300 312 314 304 297 299 287 284 289 284 283 284 282 295 292 293 278
360 357 349 343 305 336 301 313 323 317 314 311 306 319 320 309 310 310 309 313 311 308 307 306 306 311 320 322 319 319 307 309 306 303 298 292 279 279 283 283 284 295 286
360 13 339 316 309 312 327 334 335 333 347 333 332 334 337 341 318 317 319 318 320 323 319 320 320 318 322 330 329 323 313 305 297 305 298 293 281 264 265 283 282 275 274
358 3 334 335 333 336 345 350 346 344 341 340 333 341 352 343 335 339 341 339 329 316 325 330 323 327 323 335 334 329 321 308 306 311 301 295 293 288 288 288 276 271 272
4 4 340 336 340 342 343 352 347 348 351 342 358 13 349 348 349 357 360 1 3 3 342 347 343 357 357 347 334 333 331 321 318 326 323 299 328 318 321 305 292 283 270
6 358 332 333 340 327 347 353 354 359 348 19 32 7 354 346 4 10 11 8 3 359 355 351 353 355 1 4 349 341 344 341 332 333 345 321 336 336 336 337 320 309 273
9 358 345 337 343 344 352 354 357 0 14 48 34 354 341 352 18 15 16 12 7 9 359 357 359 1 360 7 3 3 3 355 349 349 351 339 352 347 331 312 320 330 252
Wind_Speed_850mb
22 20 21 22 22 21 25 25 29 34 36 38 38 38 41 43 43 41 41 45 55 55 52 56 57 54 53 50 49 52 51 49 49 46 48 49 48 47 46 45 44 44 41
26 24 23 24 23 24 25 25 27 32 37 38 41 42 43 44 44 45 45 42 48 58 53 55 57 60 59 54 53 55 53 51 49 46 45 46 45 45 45 48 49 52 51
28 25 25 24 24 25 28 28 27 31 36 39 41 42 43 44 43 46 42 44 42 49 53 62 55 55 58 55 50 54 54 48 48 46 44 43 44 44 45 45 44 48 48
33 31 26 25 25 24 27 27 25 29 33 38 42 42 42 42 44 47 47 51 51 51 55 49 55 53 57 58 53 48 49 48 49 48 45 39 39 37 35 36 38 39 40
27 31 25 26 33 27 28 25 26 29 35 41 44 44 46 46 46 52 53 52 56 53 49 58 66 67 57 57 53 49 47 44 44 46 43 40 36 34 34 32 33 35 37
23 25 25 30 29 26 28 32 35 37 40 42 48 49 53 50 59 61 70 54 46 53 67 64 74 82 76 69 69 58 49 29 37 46 45 43 40 42 40 36 36 38 40
20 27 24 29 31 32 34 38 40 43 46 45 51 54 53 62 63 66 68 38 52 54 59 63 76 74 68 70 69 86 72 56 27 48 44 45 49 50 45 42 42 42 43
24 26 21 22 27 32 34 37 38 39 44 46 52 57 52 49 54 55 56 49 51 48 51 61 68 75 72 72 59 62 77 76 65 52 32 52 65 59 55 52 49 49 52
22 26 28 29 29 30 23 33 31 35 43 44 42 46 32 19 33 33 37 51 49 46 41 51 55 66 70 54 51 57 62 60 67 55 42 78 71 68 62 60 60 61 59
13 10 18 16 20 21 25 28 34 34 30 33 32 34 34 38 27 38 37 52 49 50 55 52 48 39 48 52 31 36 35 40 38 54 65 76 71 75 71 74 73 73 71
9 9 13 21 24 13 26 32 37 32 39 38 37 39 43 51 44 44 45 42 47 44 45 40 52 39 30 28 31 31 40 53 54 58 79 79 82 91 89 87 87 86 82
3 9 11 10 15 14 21 24 30 28 31 28 28 34 39 47 46 47 50 52 54 61 58 57 49 48 53 46 49 57 54 51 67 76 81 89 98 92 86 84 94 92 87
5 5 10 14 20 25 27 29 30 34 29 36 33 33 28 33 40 46 46 51 51 55 58 56 57 63 57 60 58 60 51 66 74 80 84 85 89 95 99 98 95 94 92
2 10 16 19 21 24 28 30 29 32 37 38 39 36 38 36 30 37 41 47 56 55 48 51 43 43 47 52 55 63 69 74 76 72 73 77 80 83 88 89 87 90 93
7 11 14 18 23 28 32 34 24 36 38 33 36 31 32 32 31 34 37 42 47 62 58 52 56 57 60 60 56 47 57 57 71 82 93 100 98 95 96 96 98 102 96
6 12 17 24 28 30 31 35 28 27 37 35 32 32 37 33 36 35 37 39 42 53 68 52 55 56 56 59 65 72 80 85 83 76 74 76 71 74 75 77 84 83 86
13 17 22 24 22 25 28 34 32 30 30 33 33 33 34 36 36 36 39 39 39 44 59 60 56 60 64 73 72 73 73 74 77 73 73 75 79 83 81 66 71 85 82
15 19 21 22 23 25 27 29 30 30 31 33 34 35 34 33 36 36 36 40 41 46 54 63 66 62 63 66 69 72 78 73 73 69 71 77 77 60 57 61 62 77 80
15 18 20 21 23 25 26 24 25 29 30 33 34 34 36 33 34 37 42 42 42 45 48 55 70 71 71 72 73 80 76 76 77 72 72 68 69 65 62 71 66 64 65
15 16 19 19 21 23 20 23 32 30 30 30 35 35 33 33 38 44 46 51 55 54 61 67 73 80 74 82 79 79 77 70 71 78 82 75 67 63 67 58 60 56 51
14 16 18 19 19 16 28 33 33 34 34 33 33 25 25 27 34 40 49 55 58 66 69 71 74 76 78 79 79 85 87 90 86 75 73 65 51 53 51 51 56 51 47
14 14 14 18 25 25 29 31 30 32 24 25 28 29 27 24 35 38 45 49 46 49 56 55 61 67 76 73 73 85 89 82 70 64 42 45 46 54 51 62 56 59 52
14 14 18 18 22 27 25 26 29 28 23 25 26 25 25 29 43 51 52 53 43 40 35 41 51 64 80 82 71 75 78 72 68 66 57 63 64 74 75 68 60 57 63
15 18 24 21 20 25 26 28 31 28 23 20 15 22 27 39 47 51 55 50 48 39 37 36 39 53 61 67 56 59 65 55 54 49 41 47 43 42 45 38 44 49 60
12 17 23 22 17 26 27 33 33 31 24 18 25 27 32 38 41 50 59 63 48 46 32 39 42 54 55 64 58 58 59 52 50 51 40 29 45 48 45 26 41 42 46
12 15 16 21 20 22 25 34 35 33 25 21 23 25 33 24 36 48 57 66 61 59 56 51 45 51 55 66 64 53 62 47 37 28 30 30 37 36 36 41 63 61 27
Wind_Direction_850mb
220 224 227 230 242 250 248 258 256 259 263 262 259 260 264 267 267 263 264 268 273 282 274 266 267 265 262 261 266 266 265 265 270 272 272 273 272 272 270 270 271 274 274
221 227 235 241 239 249 253 255 264 264 267 267 264 266 265 263 268 272 272 274 281 284 288 274 271 270 267 262 262 261 264 266 270 271 270 273 272 273 270 268 270 273 276
220 230 240 252 257 258 258 262 266 271 272 271 270 270 267 271 272 274 276 278 281 284 286 290 282 271 264 260 256 263 266 267 268 268 268 270 271 271 271 271 271 272 273
226 241 235 251 262 261 266 268 268 274 274 276 274 271 270 271 270 275 276 276 275 281 281 283 269 267 271 267 261 252 248 260 267 265 268 263 267 270 269 272 275 274 276
221 230 238 247 256 263 273 278 282 281 280 275 275 274 274 273 271 278 278 273 275 280 277 273 275 274 269 258 250 235 242 261 265 267 264 264 267 266 270 273 275 271 273
227 237 242 251 267 273 274 262 266 265 267 274 277 277 274 273 278 279 275 263 266 277 279 275 274 271 264 260 254 249 241 251 265 265 265 267 268 268 270 272 272 274 274
230 240 243 250 259 284 284 281 280 281 279 274 280 280 274 275 281 281 291 296 289 282 280 285 273 267 272 274 273 268 251 240 248 275 268 280 278 271 273 275 277 277 281
218 234 255 262 280 286 289 283 287 289 292 291 282 284 286 282 278 276 281 283 302 303 308 301 283 269 272 271 274 265 254 237 232 257 242 269 270 269 272 275 278 282 281
225 243 255 270 275 283 299 281 288 284 291 294 292 277 285 280 303 296 282 295 304 314 320 323 306 281 265 263 257 257 252 244 229 225 249 270 266 266 268 272 277 279 278
226 245 267 284 288 288 282 280 286 287 290 296 293 282 278 274 287 297 296 301 316 307 310 316 317 319 286 272 309 278 249 224 231 248 256 265 266 266 269 273 276 278 278
216 248 271 278 281 291 284 285 289 299 290 283 282 284 283 285 283 275 287 287 292 293 305 297 300 298 276 278 273 250 279 246 248 258 259 266 272 272 271 273 275 274 275
261 253 279 294 306 307 308 314 310 314 303 301 300 298 294 284 283 280 282 283 289 293 287 283 295 281 269 282 282 271 271 267 254 255 260 261 264 265 265 267 268 270 268
100 307 305 305 307 314 314 315 316 312 310 303 304 300 297 297 300 296 293 289 291 291 289 287 280 279 285 288 272 266 266 258 263 264 267 267 267 268 268 270 268 266 265
224 303 309 316 317 318 318 318 318 305 298 301 298 296 297 298 297 297 299 300 300 299 298 300 302 296 291 287 284 281 277 278 276 273 269 269 271 272 274 272 267 265 265
13 328 324 329 330 326 324 324 328 320 309 311 312 316 298 300 297 292 290 292 293 299 299 302 303 297 290 292 280 289 280 276 278 281 280 283 281 279 277 274 272 267 261
337 336 335 333 331 329 325 320 316 310 312 317 313 304 305 304 301 302 298 294 293 295 297 303 301 299 293 290 285 283 281 284 287 288 291 295 294 288 283 278 271 267 263
347 337 333 333 332 330 325 324 324 328 313 315 313 310 306 308 309 306 302 303 303 302 299 303 302 304 299 297 299 296 294 289 292 292 289 285 283 282 284 289 284 272 265
342 340 334 335 336 333 330 331 325 322 321 314 313 311 310 311 308 307 308 302 301 301 302 304 305 303 299 293 294 290 286 282 283 281 282 284 287 285 291 283 293 288 269
348 343 342 344 341 337 333 323 321 317 312 310 310 305 306 307 309 307 310 310 307 305 303 297 301 306 301 294 299 297 292 290 283 278 284 289 289 289 288 292 288 291 276
354 352 349 344 338 336 316 306 323 318 312 308 307 312 316 327 319 314 309 310 314 304 300 301 300 302 300 312 314 304 297 299 287 284 289 284 283 284 282 295 292 293 278
360 357 349 343 305 336 301 313 323 317 314 311 306 319 320 309 310 310 309 313 311 308 307 306 306 311 320 322 319 319 307 309 306 303 298 292 279 279 283 283 284 295 286
360 13 339 316 309 312 327 334 335 333 347 333 332 334 337 341 318 317 319 318 320 323 319 320 320 318 322 330 329 323 313 305 297 305 298 293 281 264 265 283 282 275 274
358 3 334 335 333 336 345 350 346 344 341 340 333 341 352 343 335 339 341 339 329 316 325 330 323 327 323 335 334 329 321 308 306 311 301 295 293 288 288 288 276 271 272
4 4 340 336 340 342 343 352 347 348 351 342 358 13 349 348 349 357 360 1 3 3 342 347 343 357 357 347 334 333 331 321 318 326 323 299 328 318 321 305 292 283 270
6 358 332 333 340 327 347 353 354 359 348 19 32 7 354 346 4 10 11 8 3 359 355 351 353 355 1 4 349 341 344 341 332 333 345 321 336 336 336 337 320 309 273
9 358 345 337 343 344 352 354 357 0 14 48 34 354 341 352 18 15 16 12 7 9 359 357 359 1 360 7 3 3 3 355 349 349 351 339 352 347 331 312 320 330 252